Regional Weather Roundup
Issued by NWS

Home | Current Version | Previous Version | Text Only | Print | Product List | Glossary On
Versions: 1 2 3 4 5 6 7 8 9 10 11 12 13 14 15 16 17 18 19 20 21 22 23 24 25 26 27 28 29 30 31 32 33 34 35 36 37 38 39 40 41 42 43 44 45 46 47 48 49 50
000
ASUS45 KPSR 041200
RWRAZ

ARIZONA HOURLY REGIONAL WEATHER ROUNDUP
NATIONAL WEATHER SERVICE PHOENIX AZ
500 AM MST SAT JUL 04 2015

NOTE: FAIR INDICATES FEW OR NO CLOUDS BELOW 12,000 FEET WITH NO
SIGNIFICANT WEATHER AND/OR OBSTRUCTIONS TO VISIBILITY.

AZZ001>003-036-041300-
NORTHWEST ARIZONA

CITY           SKY/WX    TMP DP  RH WIND       PRES   REMARKS
KINGMAN        CLOUDY    81  52  36 S7        29.94S
6HR MIN TEMP:  80; 6HR MAX TEMP:  85;

$$

AZZ004>008-015-016-018-041300-
NORTH CENTRAL ARIZONA

CITY           SKY/WX    TMP DP  RH WIND       PRES   REMARKS
GRAND CANYON   CLOUDY    61  57  87 CALM      30.19F
6HR MIN TEMP:  59; 6HR MAX TEMP:  63; 6HR PCP:  0.01;

WILLIAMS       CLOUDY    63  52  67 N5        30.26S
PRESCOTT       CLOUDY    68  59  73 SW6       30.07S
6HR MIN TEMP:  67; 6HR MAX TEMP:  72;

FLAGSTAFF      NOT AVBL
PAYSON         MOCLDY    66  55  68 N5        30.08S
PAGE           MOCLDY    78  55  44 S5        30.00F
6HR MIN TEMP:  77; 6HR MAX TEMP:  87;

$$

AZZ009>014-017-041300-
NORTHEAST ARIZONA

CITY           SKY/WX    TMP DP  RH WIND       PRES   REMARKS
WINSLOW        NOT AVBL
SAINT JOHNS    CLOUDY    65  61  87 S3        30.13S
6HR MIN TEMP:  65; 6HR MAX TEMP:  67; 6HR PCP: TRACE;

WINDOW ROCK    MOCLDY    58  52  80 CALM      30.22S
6HR MIN TEMP:  57; 6HR MAX TEMP:  71; 6HR PCP:  0.07;

SHOW LOW       CLOUDY    57  55  94 NE5       30.18F
$$

AZZ023-041300-
GREATER PHOENIX AREA

CITY           SKY/WX    TMP DP  RH WIND       PRES   REMARKS
PHOENIX        MOCLDY    86  64  47 SW3       29.74S
6HR MIN TEMP:  86; 6HR MAX TEMP:  91;

LUKE AFB       PTCLDY    84  63  48 NE5       29.74S
DEER VALLEY    PTCLDY    81  62  52 NE9       29.77S
6HR MIN TEMP:  81; 6HR MAX TEMP:  85;

SCOTTSDALE     PTCLDY    83  66  56 CALM      29.78S
6HR MIN TEMP:  82; 6HR MAX TEMP:  91;

MESA-GATEWAY   PTCLDY    81  64  57 MISG      29.78S
$$

AZZ027-028-041300-
SOUTHWEST MARICOPA COUNTY AND PINAL COUNTY

CITY           SKY/WX    TMP DP  RH WIND       PRES   REMARKS
CASA GRANDE    MOCLDY    81  63  54 CALM      29.78R
6HR MIN TEMP:  79; 6HR MAX TEMP:  90;

GILA BEND      FAIR      84  59  42 SW5       29.72S
6HR MIN TEMP:  84; 6HR MAX TEMP:  96;

$$

AZZ503-504-507>509-041300-
SOUTHEAST ARIZONA

CITY           SKY/WX    TMP DP  RH WIND       PRES   REMARKS
TUCSON         MOCLDY    83  53  35 SE8       29.90R
6HR MIN TEMP:  83; 6HR MAX TEMP:  91;

DAVIS-MONTHAN  CLOUDY    81  55  40 SE8       29.89R
6HR MIN TEMP:  79; 6HR MAX TEMP:  90;

NOGALES        CLOUDY    74  58  57 S7        30.00R
6HR MIN TEMP:  74; 6HR MAX TEMP:  79;

SIERRA VISTA   CLOUDY    73  62  69 S24       30.07S
6HR MIN TEMP:  73; 6HR MAX TEMP:  80; 6HR PCP:  0.01;

SAFFORD        PTCLDY    78  60  53 E7        29.94R
6HR MIN TEMP:  78; 6HR MAX TEMP:  84;

$$

AZZ020-021-025-026-031-041300-
SOUTHWEST ARIZONA

CITY           SKY/WX    TMP DP  RH WIND       PRES   REMARKS
YUMA           MOCLDY    89  63  41 CALM      29.67F
6HR MIN TEMP:  89; 6HR MAX TEMP:  94;

$$

CAZ031-033-041-043-047-048-061-041300-
SOUTHERN CALIFORNIA

CITY           SKY/WX    TMP DP  RH WIND       PRES   REMARKS
DOWNTOWN L.A.  MOCLDY    64  59  83 CALM      29.87S
6HR MIN TEMP:  63; 6HR MAX TEMP:  65;

L.A. AIRPORT   CLOUDY    63  60  90 CALM      29.88S
6HR MIN TEMP:  62; 6HR MAX TEMP:  63;

SAN DIEGO      CLOUDY    69  60  73 NW5       29.88S
6HR MIN TEMP:  68; 6HR MAX TEMP:  69;

BURBANK        CLEAR     64  58  80 E6        29.87S
6HR MIN TEMP:  64; 6HR MAX TEMP:  69;

ONTARIO        PTCLDY    63  56  78 SW5       29.88S
6HR MIN TEMP:  63; 6HR MAX TEMP:  71;

RIVERSIDE      CLEAR     64  58  80 W3        29.88S
6HR MIN TEMP:  64; 6HR MAX TEMP:  73;

PALM SPRINGS   PTCLDY    86  54  33 CALM      29.73R
6HR MIN TEMP:  86; 6HR MAX TEMP:  96;

EL CENTRO NAS  CLEAR     82  53  36 N6        29.69R
6HR MIN TEMP:  82; 6HR MAX TEMP:  94;

IMPERIAL       PTCLDY    85  54  34 NW3       29.66S
6HR MIN TEMP:  82; 6HR MAX TEMP:  93;

BLYTHE         CLOUDY    85  56  37 N5        29.69R
6HR MIN TEMP:  85; 6HR MAX TEMP:  97;

$$

NVZ020-UTZ003-041300-
SOUTHERN NEVADA-UTAH

CITY           SKY/WX    TMP DP  RH WIND       PRES   REMARKS
LAS VEGAS      NOT AVBL
SALT LAKE CITY CLOUDY    79  52  38 S6        29.91R
6HR MIN TEMP:  79; 6HR MAX TEMP:  85;

$$

NMZ009-TXZ055-041300-
NEW MEXICO-WEST TEXAS

CITY           SKY/WX    TMP DP  RH WIND       PRES   REMARKS
ALBUQUERQUE    MOCLDY    71  56  58 NW3       30.15S
6HR MIN TEMP:  70; 6HR MAX TEMP:  75;

EL PASO        MOCLDY    78  60  53 E7        30.03S
6HR MIN TEMP:  78; 6HR MAX TEMP:  81;

$$


........................KEY........................
SKY/WX - SKY CONDITION/WEATHER
TMP    - TEMPERATURE IN FAHRENHEIT
DP     - DEW POINT IN FAHRENHEIT
RH     - RELATIVE HUMIDITY IN PERCENT
WIND   - DIRECTION AND SPEED IN MILES PER HOUR (MPH)
VRB    - VARIABLE WIND DIRECTION
PRES   - MEAN SEA LEVEL PRESSURE IN INCHES OF MERCURY
         F - FALLING PRESSURE   R - RISING PRESSURE
         S - STEADY PRESSURE
VSB    - VISIBILITY IN MILES
HX     - HEAT INDEX IN FAHRENHEIT
WCI    - WIND CHILL INDEX IN FAHRENHEIT
TC     - TEMPERATURE IN CELSIUS WHICH IS ALSO KNOWN AS
         TEMPERATURE IN CENTIGRADE
AFB    - AIR FORCE BASE
         LUKE AFB IS LUKE AIR FORCE BASE
         DAVIS-MONTHAN IS DAVIS-MONTHAN AIR FORCE BASE
NAS    - NAVAL AIR STATION
         EL CENTRO NAS IS EL CENTRO NAVAL AIR STATION
N/A    - NOT AVAILABLE



USA.gov is the U.S. government's official web portal to all federal, state and local government web resources and services.